When you browse on this site, cookies collect data to enhance your experience and personalize the content and advertising you see.
Visit our Privacy Policy to learn more. By continuing to use the site, you agree to this use of cookies and data.

Previsão horária em Sopron

Hoje, 12 Julho, Domingo

Tempo Temperatura Precipitação Vento Pressão Humidade
00:00 +13°C° 0.1 mm 4 m/s 750 mmHg 91%
01:00 +13°C° 0 mm 5 m/s 750 mmHg 88%
02:00 +12°C° 0 mm 5 m/s 750 mmHg 88%
03:00 +12°C° 0 mm 4 m/s 750 mmHg 89%
04:00 +12°C° 0 mm 4 m/s 750 mmHg 89%
05:00 +13°C° 0 mm 5 m/s 750 mmHg 83%
06:00 +14°C° 0 mm 5 m/s 751 mmHg 77%
07:00 +15°C° 0 mm 6 m/s 751 mmHg 70%
08:00 +16°C° 0 mm 6 m/s 751 mmHg 64%
09:00 +19°C° 0 mm 6 m/s 751 mmHg 57%
10:00 +20°C° 0 mm 6 m/s 751 mmHg 50%
11:00 +21°C° 0 mm 6 m/s 751 mmHg 48%
12:00 +22°C° 0 mm 6 m/s 751 mmHg 47%
13:00 +22°C° 0 mm 6 m/s 751 mmHg 45%
14:00 +22°C° 0 mm 5 m/s 751 mmHg 45%
15:00 +22°C° 0 mm 5 m/s 750 mmHg 45%
16:00 +22°C° 0 mm 5 m/s 750 mmHg 45%
17:00 +21°C° 0 mm 4 m/s 750 mmHg 51%
18:00 +20°C° 0 mm 3 m/s 750 mmHg 57%
19:00 +19°C° 0 mm 3 m/s 751 mmHg 63%
20:00 +18°C° 0 mm 2 m/s 751 mmHg 66%
21:00 +16°C° 0 mm 2 m/s 751 mmHg 68%
22:00 +15°C° 0 mm 2 m/s 751 mmHg 71%
23:00 +15°C° 0 mm 2 m/s 751 mmHg 73%

Amanhã, 13 Julho, Segunda-feira

Tempo Temperatura Precipitação Vento Pressão Humidade
00:00 +14°C° 0 mm 2 m/s 751 mmHg 74%
01:00 +14°C° 0 mm 2 m/s 751 mmHg 76%
02:00 +14°C° 0 mm 2 m/s 751 mmHg 77%
03:00 +13°C° 0 mm 2 m/s 751 mmHg 79%
04:00 +12°C° 0 mm 3 m/s 750 mmHg 80%
05:00 +14°C° 0 mm 3 m/s 750 mmHg 75%
06:00 +16°C° 0 mm 3 m/s 751 mmHg 71%
07:00 +17°C° 0 mm 3 m/s 751 mmHg 66%
08:00 +19°C° 0 mm 3 m/s 750 mmHg 60%
09:00 +20°C° 0 mm 3 m/s 750 mmHg 53%
10:00 +21°C° 0 mm 3 m/s 750 mmHg 47%
11:00 +22°C° 0 mm 3 m/s 750 mmHg 45%
12:00 +24°C° 0 mm 3 m/s 749 mmHg 42%
13:00 +24°C° 0 mm 3 m/s 749 mmHg 39%
14:00 +24°C° 0 mm 3 m/s 749 mmHg 40%
15:00 +24°C° 0 mm 3 m/s 748 mmHg 41%
16:00 +24°C° 0 mm 3 m/s 748 mmHg 42%
17:00 +22°C° 0 mm 3 m/s 748 mmHg 48%
18:00 +20°C° 0 mm 2 m/s 747 mmHg 55%
19:00 +19°C° 0 mm 2 m/s 747 mmHg 62%
20:00 +18°C° 0 mm 2 m/s 747 mmHg 65%
21:00 +16°C° 0 mm 1 m/s 748 mmHg 68%
22:00 +15°C° 0 mm 1 m/s 748 mmHg 71%
23:00 +15°C° 0 mm 1 m/s 748 mmHg 73%

Depois de amanhã, 14 Julho, Terça-feira

Tempo Temperatura Precipitação Vento Pressão Humidade
00:00 +14°C° 0 mm 1 m/s 748 mmHg 74%
01:00 +14°C° 0 mm 1 m/s 748 mmHg 76%
02:00 +14°C° 0 mm 1 m/s 747 mmHg 77%
03:00 +13°C° 0 mm 1 m/s 747 mmHg 79%
04:00 +13°C° 0 mm 1 m/s 747 mmHg 80%
05:00 +14°C° 0 mm 1 m/s 747 mmHg 75%
06:00 +16°C° 0 mm 1 m/s 747 mmHg 71%
07:00 +19°C° 0 mm 1 m/s 747 mmHg 66%
08:00 +20°C° 0 mm 1 m/s 747 mmHg 61%
09:00 +22°C° 0 mm 1 m/s 747 mmHg 55%
10:00 +23°C° 0 mm 1 m/s 746 mmHg 50%
11:00 +24°C° 0 mm 2 m/s 746 mmHg 48%
12:00 +25°C° 0 mm 2 m/s 746 mmHg 45%
13:00 +26°C° 0 mm 2 m/s 746 mmHg 43%
14:00 +26°C° 0 mm 2 m/s 745 mmHg 42%
15:00 +26°C° 0 mm 2 m/s 745 mmHg 41%
16:00 +26°C° 0 mm 2 m/s 744 mmHg 41%
17:00 +25°C° 0 mm 2 m/s 744 mmHg 47%
18:00 +24°C° 0 mm 2 m/s 744 mmHg 52%
19:00 +21°C° 0 mm 2 m/s 744 mmHg 58%
20:00 +20°C° 0 mm 2 m/s 745 mmHg 62%
21:00 +19°C° 0 mm 2 m/s 745 mmHg 66%
22:00 +17°C° 0 mm 2 m/s 745 mmHg 70%
23:00 +17°C° 0 mm 3 m/s 745 mmHg 70%

15 Julho, Quarta-feira

Tempo Temperatura Precipitação Vento Pressão Humidade
00:00 +17°C° 0 mm 3 m/s 745 mmHg 70%
01:00 +17°C° 0 mm 3 m/s 745 mmHg 71%
02:00 +16°C° 0 mm 2 m/s 745 mmHg 72%
03:00 +16°C° 0 mm 2 m/s 744 mmHg 73%
04:00 +16°C° 0 mm 2 m/s 744 mmHg 75%
05:00 +17°C° 0 mm 2 m/s 744 mmHg 71%
06:00 +18°C° 0 mm 2 m/s 744 mmHg 68%
07:00 +19°C° 0 mm 2 m/s 744 mmHg 64%
08:00 +21°C° 0 mm 2 m/s 744 mmHg 60%
09:00 +24°C° 0 mm 2 m/s 744 mmHg 55%
10:00 +26°C° 0 mm 3 m/s 744 mmHg 50%
11:00 +26°C° 0.3 mm 3 m/s 744 mmHg 50%
12:00 +26°C° 0.3 mm 3 m/s 744 mmHg 50%
13:00 +27°C° 0.3 mm 4 m/s 743 mmHg 50%
14:00 +27°C° 0.1 mm 4 m/s 743 mmHg 50%
15:00 +27°C° 0.1 mm 4 m/s 743 mmHg 51%
16:00 +27°C° 0.1 mm 4 m/s 742 mmHg 51%
17:00 +26°C° 0 mm 3 m/s 743 mmHg 54%
18:00 +25°C° 0 mm 3 m/s 743 mmHg 58%
19:00 +24°C° 0 mm 3 m/s 743 mmHg 61%
20:00 +22°C° 0 mm 3 m/s 743 mmHg 62%
21:00 +21°C° 0 mm 3 m/s 743 mmHg 63%
22:00 +21°C° 0 mm 4 m/s 744 mmHg 63%
23:00 +20°C° 0 mm 3 m/s 744 mmHg 66%

16 Julho, Quinta-feira

Tempo Temperatura Precipitação Vento Pressão Humidade
00:00 +20°C° 0 mm 3 m/s 744 mmHg 69%
01:00 +19°C° 0 mm 3 m/s 744 mmHg 72%
02:00 +19°C° 0.1 mm 3 m/s 744 mmHg 72%
03:00 +19°C° 0.1 mm 4 m/s 744 mmHg 72%
04:00 +19°C° 0.1 mm 4 m/s 744 mmHg 72%
05:00 +19°C° 0 mm 4 m/s 744 mmHg 73%
06:00 +19°C° 0 mm 4 m/s 744 mmHg 73%
07:00 +18°C° 0 mm 3 m/s 744 mmHg 73%
08:00 +19°C° 0.2 mm 3 m/s 744 mmHg 74%
09:00 +19°C° 0.2 mm 3 m/s 745 mmHg 74%
10:00 +19°C° 0.2 mm 3 m/s 745 mmHg 74%
11:00 +19°C° 0.2 mm 3 m/s 745 mmHg 74%
12:00 +20°C° 0.2 mm 3 m/s 745 mmHg 74%
13:00 +20°C° 0.2 mm 3 m/s 744 mmHg 74%
14:00 +20°C° 0.3 mm 3 m/s 744 mmHg 75%
15:00 +19°C° 0.3 mm 4 m/s 744 mmHg 76%
16:00 +19°C° 0.3 mm 4 m/s 744 mmHg 77%
17:00 +19°C° 0.1 mm 4 m/s 744 mmHg 77%
18:00 +19°C° 0.1 mm 4 m/s 744 mmHg 77%
19:00 +18°C° 0.1 mm 4 m/s 744 mmHg 77%
20:00 +17°C° 0 mm 4 m/s 744 mmHg 79%
21:00 +17°C° 0 mm 4 m/s 745 mmHg 81%
22:00 +15°C° 0 mm 4 m/s 745 mmHg 84%
23:00 +15°C° 0 mm 4 m/s 745 mmHg 83%

17 Julho, Sexta-feira

Tempo Temperatura Precipitação Vento Pressão Humidade
00:00 +15°C° 0 mm 4 m/s 745 mmHg 82%
01:00 +14°C° 0 mm 4 m/s 744 mmHg 82%
02:00 +14°C° 0 mm 4 m/s 744 mmHg 82%
03:00 +14°C° 0 mm 4 m/s 744 mmHg 83%
04:00 +14°C° 0 mm 4 m/s 744 mmHg 83%
05:00 +15°C° 0 mm 5 m/s 744 mmHg 78%
06:00 +17°C° 0 mm 5 m/s 744 mmHg 73%
07:00 +19°C° 0 mm 6 m/s 744 mmHg 69%
08:00 +20°C° 0 mm 6 m/s 745 mmHg 63%
09:00 +21°C° 0 mm 7 m/s 745 mmHg 56%
10:00 +23°C° 0 mm 7 m/s 745 mmHg 50%
11:00 +23°C° 0.1 mm 7 m/s 745 mmHg 51%
12:00 +24°C° 0.1 mm 6 m/s 744 mmHg 51%
13:00 +24°C° 0.1 mm 6 m/s 744 mmHg 51%
14:00 +24°C° 0.1 mm 6 m/s 744 mmHg 51%
15:00 +24°C° 0.1 mm 6 m/s 744 mmHg 51%
16:00 +25°C° 0.1 mm 5 m/s 744 mmHg 52%
17:00 +23°C° 0 mm 5 m/s 744 mmHg 57%
18:00 +22°C° 0 mm 4 m/s 744 mmHg 61%
19:00 +21°C° 0 mm 4 m/s 744 mmHg 66%
20:00 +20°C° 0 mm 4 m/s 745 mmHg 69%
21:00 +19°C° 0 mm 4 m/s 745 mmHg 71%
22:00 +18°C° 0 mm 3 m/s 746 mmHg 74%
23:00 +18°C° 0 mm 3 m/s 746 mmHg 76%
Mostrar mais